| time (UTC) | temp F | wind direction | speed MPH | gust MPH | rain 1hr in | rain 24hr in | rain mn in | humidity % | barometer mb |
| 20260507191525 | 55 | 175 | 5.0 | 12.0 | 0.00 | 0.34 | 0.00 | 38 | 1005.7 |
| 20260507190026 | 56 | 300 | 4.0 | 10.0 | 0.00 | 0.37 | 0.00 | 38 | 1005.7 |
| 20260507184514 | 54 | 263 | 2.0 | 14.0 | 0.00 | 0.40 | 0.00 | 38 | 1005.9 |
| 20260507183017 | 55 | 59 | 5.0 | 12.0 | 0.00 | 0.44 | 0.00 | 38 | 1006.1 |
| 20260507181522 | 52 | 299 | 2.0 | 10.0 | 0.00 | 0.45 | 0.00 | 43 | 1006.2 |
| 20260507180039 | 53 | 41 | 2.0 | 8.0 | 0.00 | 0.47 | 0.00 | 42 | 1006.0 |
| 20260507174528 | 53 | 298 | 4.0 | 11.0 | 0.00 | 0.49 | 0.00 | 43 | 1006.3 |
| 20260507173022 | 54 | 209 | 6.0 | 14.0 | 0.00 | 0.52 | 0.00 | 44 | 1006.1 |
| 20260507171520 | 55 | 345 | 4.0 | 11.0 | 0.00 | 0.56 | 0.00 | 42 | 1006.3 |
| 20260507170041 | 55 | 304 | 5.0 | 16.0 | 0.00 | 0.60 | 0.00 | 41 | 1006.6 |
| 20260507164526 | 54 | 115 | 6.0 | 12.0 | 0.00 | 0.62 | 0.00 | 44 | 1006.8 |
| 20260507163028 | 53 | 338 | 3.0 | 14.0 | 0.00 | 0.64 | 0.00 | 54 | 1006.9 |
| 20260507161520 | 53 | 330 | 3.0 | 9.0 | 0.00 | 0.65 | 0.00 | 48 | 1007.0 |
| 20260507160025 | 52 | 279 | 3.0 | 8.0 | 0.00 | 0.65 | 0.00 | 50 | 1007.1 |
| 20260507154524 | 52 | 311 | 3.0 | 12.0 | 0.00 | 0.65 | 0.00 | 49 | 1007.4 |
| 20260507153027 | 52 | 229 | 3.0 | 10.0 | 0.00 | 0.65 | 0.00 | 49 | 1007.5 |
| 20260507151519 | 52 | 273 | 5.0 | 11.0 | 0.00 | 0.65 | 0.00 | 48 | 1007.6 |
| 20260507150015 | 50 | 123 | 2.0 | 8.0 | 0.00 | 0.65 | 0.00 | 62 | 1007.6 |
| 20260507144504 | 50 | 254 | 2.0 | 8.0 | 0.00 | 0.65 | 0.00 | 55 | 1007.5 |
| 20260507143010 | 51 | 338 | 3.0 | 11.0 | 0.00 | 0.65 | 0.00 | 57 | 1007.5 |
| 20260507141515 | 50 | 169 | 5.0 | 11.0 | 0.00 | 0.65 | 0.00 | 59 | 1007.5 |
| 20260507140015 | 48 | 290 | 6.0 | 13.0 | 0.00 | 0.65 | 0.00 | 68 | 1007.4 |
| 20260507134508 | 49 | 23 | 3.0 | 5.0 | 0.00 | 0.65 | 0.00 | 73 | 1007.5 |
| 20260507133009 | 48 | 36 | 1.0 | 5.0 | 0.00 | 0.65 | 0.00 | 78 | 1007.4 |
| 20260507131512 | 46 | 27 | 2.0 | 4.0 | 0.00 | 0.65 | 0.00 | 83 | 1007.5 |
| 20260507130015 | 46 | 210 | 0.0 | 4.0 | 0.00 | 0.65 | 0.00 | 84 | 1007.5 |
| 20260507124520 | 47 | 289 | 2.0 | 5.0 | 0.00 | 0.65 | 0.00 | 85 | 1007.4 |
| 20260507123008 | 47 | 63 | 1.0 | 4.0 | 0.00 | 0.65 | 0.00 | 84 | 1007.3 |
| 20260507121511 | 48 | 261 | 2.0 | 7.0 | 0.00 | 0.65 | 0.00 | 84 | 1007.1 |
| 20260507120014 | 48 | 256 | 2.0 | 8.0 | 0.00 | 0.65 | 0.00 | 84 | 1007.1 |
| 20260507114517 | 46 | 127 | 0.0 | 3.0 | 0.00 | 0.65 | 0.00 | 89 | 1007.1 |
| 20260507113024 | 44 | 161 | 0.0 | 2.0 | 0.00 | 0.65 | 0.00 | 95 | 1007.2 |
| 20260507111513 | 42 | 325 | 0.0 | 2.0 | 0.00 | 0.65 | 0.00 | 97 | 1007.1 |
| 20260507110012 | 41 | 267 | 0.0 | 2.0 | 0.00 | 0.65 | 0.00 | 97 | 1007.1 |
| 20260507104518 | 40 | 29 | 0.0 | 2.0 | 0.00 | 0.65 | 0.00 | 97 | 1007.1 |
| 20260507103022 | 38 | 294 | 0.0 | 0.0 | 0.00 | 0.65 | 0.00 | 97 | 1007.0 |
| 20260507101520 | 0 | 0.0 | 0.0 | 0.00 | 0.65 | 0.00 | 1006.9 | ||
| 20260507100022 | 0 | 0.0 | 0.0 | 0.00 | 0.65 | 0.00 | 1006.9 | ||
| 20260507094523 | 0 | 0.0 | 0.0 | 0.00 | 0.65 | 0.00 | 1007.0 | ||
| 20260507093024 | 0 | 0.0 | 0.0 | 0.00 | 0.65 | 0.00 | 1007.1 | ||
| 20260507091534 | 0 | 0.0 | 0.0 | 0.00 | 0.65 | 0.00 | 1007.2 | ||
| 20260507090032 | 0 | 0.0 | 0.0 | 0.00 | 0.65 | 0.00 | 1007.3 | ||
| 20260507084538 | 0 | 0.0 | 0.0 | 0.00 | 0.65 | 0.00 | 1007.0 | ||
| 20260507083023 | 0 | 0.0 | 0.0 | 0.00 | 0.65 | 0.00 | 1007.0 | ||
| 20260507081525 | 0 | 0.0 | 0.0 | 0.00 | 0.65 | 0.00 | 1007.1 | ||
| 20260507080025 | 0 | 0.0 | 0.0 | 0.00 | 0.65 | 0.00 | 1006.9 | ||
| 20260507074524 | 0 | 0.0 | 0.0 | 0.00 | 0.65 | 0.00 | 1007.1 | ||
| 20260507073026 | 0 | 0.0 | 0.0 | 0.00 | 0.65 | 0.00 | 1007.0 | ||
| 20260507071527 | 0 | 0.0 | 0.0 | 0.00 | 0.65 | 0.00 | 1006.7 | ||
| 20260507070027 | 0 | 0.0 | 0.0 | 0.00 | 0.65 | 0.00 | 1006.6 | ||
| 20260507064525 | 43 | 260 | 0.0 | 1.0 | 0.00 | 0.65 | 0.00 | 95 | 1006.3 |
| 20260507063026 | 43 | 277 | 1.0 | 2.0 | 0.00 | 0.65 | 0.00 | 95 | 1006.8 |
| 20260507061526 | 43 | 10 | 0.0 | 2.0 | 0.00 | 0.65 | 0.00 | 95 | 1006.7 |
| 20260507060021 | 43 | 352 | 0.0 | 2.0 | 0.00 | 0.65 | 0.00 | 94 | 1006.9 |
| 20260507054503 | 44 | 321 | 0.0 | 2.0 | 0.00 | 0.65 | 0.00 | 94 | 1007.1 |
| 20260507053004 | 43 | 5 | 0.0 | 2.0 | 0.00 | 0.65 | 0.00 | 94 | 1007.3 |
| 20260507051508 | 44 | 242 | 0.0 | 2.0 | 0.00 | 0.65 | 0.00 | 94 | 1007.0 |
| 20260507050034 | 44 | 9 | 1.0 | 3.0 | 0.00 | 0.65 | 0.00 | 93 | 1006.9 |
| 20260507044518 | 44 | 298 | 0.0 | 2.0 | 0.00 | 0.65 | 0.00 | 94 | 1006.8 |
| 20260507043004 | 45 | 298 | 1.0 | 2.0 | 0.00 | 0.65 | 0.00 | 94 | 1006.8 |
| 20260507041511 | 45 | 289 | 0.0 | 2.0 | 0.00 | 0.65 | 0.00 | 94 | 1007.1 |
| 20260507040013 | 45 | 311 | 0.0 | 2.0 | 0.00 | 0.65 | 0.00 | 94 | 1006.9 |
| 20260507034515 | 45 | 289 | 0.0 | 2.0 | 0.01 | 0.65 | 0.65 | 93 | 1006.7 |
| 20260507033020 | 45 | 260 | 0.0 | 2.0 | 0.02 | 0.65 | 0.65 | 92 | 1006.9 |
| 20260507031504 | 45 | 295 | 2.0 | 6.0 | 0.04 | 0.65 | 0.65 | 92 | 1007.0 |
| 20260507030013 | 45 | 248 | 1.0 | 4.0 | 0.04 | 0.65 | 0.65 | 92 | 1006.9 |
| 20260507024516 | 46 | 319 | 1.0 | 2.0 | 0.04 | 0.64 | 0.64 | 93 | 1007.0 |
| 20260507023016 | 46 | 285 | 0.0 | 3.0 | 0.04 | 0.63 | 0.63 | 93 | 1007.0 |
| 20260507021529 | 47 | 268 | 1.0 | 4.0 | 0.04 | 0.61 | 0.61 | 93 | 1007.1 |
| 20260507020009 | 47 | 183 | 0.0 | 3.0 | 0.05 | 0.61 | 0.61 | 92 | 1007.1 |
| 20260507014512 | 48 | 253 | 1.0 | 4.0 | 0.04 | 0.60 | 0.60 | 92 | 1006.9 |
| 20260507013012 | 49 | 292 | 3.0 | 7.0 | 0.04 | 0.58 | 0.58 | 92 | 1006.5 |
| 20260507011523 | 49 | 240 | 1.0 | 6.0 | 0.02 | 0.57 | 0.57 | 93 | 1006.5 |
| 20260507010032 | 49 | 317 | 1.0 | 5.0 | 0.01 | 0.56 | 0.56 | 92 | 1005.9 |
| 20260507004507 | 50 | 315 | 1.0 | 10.0 | 0.01 | 0.56 | 0.56 | 92 | 1005.7 |
| 20260507003015 | 51 | 302 | 2.0 | 8.0 | 0.02 | 0.55 | 0.55 | 92 | 1005.5 |
| 20260507001516 | 52 | 305 | 0.0 | 2.0 | 0.08 | 0.55 | 0.55 | 92 | 1005.1 |
| 20260507000026 | 52 | 232 | 1.0 | 8.0 | 0.13 | 0.55 | 0.55 | 92 | 1004.9 |
| 20260506234524 | 53 | 265 | 2.0 | 6.0 | 0.13 | 0.55 | 0.55 | 92 | 1004.5 |
| 20260506233007 | 54 | 334 | 2.0 | 8.0 | 0.12 | 0.52 | 0.52 | 90 | 1004.2 |
| 20260506231518 | 58 | 269 | 0.0 | 2.0 | 0.08 | 0.47 | 0.47 | 94 | 1003.8 |
| 20260506230022 | 58 | 254 | 0.0 | 2.0 | 0.04 | 0.42 | 0.42 | 94 | 1003.5 |
| 20260506224524 | 58 | 123 | 1.0 | 5.0 | 0.05 | 0.42 | 0.42 | 94 | 1003.7 |
| 20260506223025 | 58 | 223 | 1.0 | 2.0 | 0.04 | 0.41 | 0.41 | 94 | 1003.8 |
| 20260506221512 | 58 | 209 | 0.0 | 3.0 | 0.02 | 0.39 | 0.39 | 94 | 1003.7 |
| 20260506220018 | 58 | 240 | 0.0 | 6.0 | 0.01 | 0.38 | 0.38 | 93 | 1003.6 |
| 20260506214523 | 58 | 130 | 1.0 | 4.0 | 0.01 | 0.37 | 0.37 | 93 | 1003.5 |
| 20260506213027 | 59 | 248 | 2.0 | 7.0 | 0.02 | 0.38 | 0.37 | 93 | 1003.5 |
| 20260506211539 | 59 | 63 | 1.0 | 6.0 | 0.05 | 0.38 | 0.37 | 94 | 1003.5 |
| 20260506210030 | 59 | 161 | 1.0 | 5.0 | 0.06 | 0.38 | 0.37 | 94 | 1003.6 |
| 20260506204523 | 59 | 128 | 1.0 | 4.0 | 0.05 | 0.37 | 0.36 | 94 | 1003.7 |
| 20260506203023 | 59 | 191 | 1.0 | 5.0 | 0.04 | 0.36 | 0.35 | 94 | 1003.9 |
| 20260506201510 | 59 | 350 | 1.0 | 7.0 | 0.01 | 0.33 | 0.32 | 93 | 1003.9 |
| 20260506200014 | 59 | 164 | 2.0 | 4.0 | 0.03 | 0.32 | 0.31 | 93 | 1004.0 |
| 20260506194518 | 59 | 255 | 1.0 | 4.0 | 0.06 | 0.32 | 0.31 | 93 | 1004.1 |
| 20260506193036 | 59 | 169 | 1.0 | 6.0 | 0.10 | 0.32 | 0.31 | 94 | 1004.4 |